Find Starlink 34271

NORAD ID: 64384 Int'l Des: 2025-127 Owner: SPXS Country: US Constellation: starlink operational
LEOCIRCULAR

当前视图

正在加载3D地球...

About Starlink 34271

Starlink 34271 (NORAD 64384) is a starlink constellation satellite (v2 mini) launched Jun 13, 2025 by SPXS of US. It operates in LEO, CIRCULAR orbit with a mass of 575.00 kg.

即将过境

Passes for default location (London). Set your location on the main map for personalized predictions.

高度历史

Loading altitude history...

两行轨道根数

1 64384U 25127Q 26237.25089568 .00012421 00000-0 45999-3 0 9994
2 64384 43.0022 308.0660 0000985 232.7084 127.3678 15.27589443 68241
Epoch: Aug 25, 2026 • Age: 6 hours

当前状态

高度 494.0 km
远地点 / 近地点 N/A
速度 7.62 km/s
星下点 -38.15°S, 95.74°E
发射日期 Jun 13, 2025
运行时间 1.1 years
类型 internet

技术详情

分类 Payload
质量 575.00 kg
干质量 530.00 kg
总质量 575.00 kg
长度 0.30 m
直径 4.10 m
跨度 29.00 m
形状 Box + pan
制造商 SPXS
平台类型 Starlink V2MO
阶段状态 In Orbit
所有者/国家 SPXS/US

Most Searched